Retour au catalogue

FENGYUN 1C DEB

ActifPO
NORAD 35154·DEBRIS·🇨🇳 China

Lancé May 10, 1999 depuis Taiyuan Satellite Launch Center

Loading…

Prochains Passages (prochaines 24 heures)

TLE

FraisSource: Space-Track

Époque: Sep 12, 2026, 04:58 UTC

1 35154U 99025DMJ 26255.20705385  .00000321  00000-0  15166-3 0  9991
2 35154  99.4568  39.4616 0177715 352.8071   7.0558 14.19376690684564

Suivez FENGYUN 1C DEB en temps réel avec AllMySat

Download on the App Store